Weather Roundup
Issued by NWS Chicago, IL

Home | Current Version | Previous Version | Graphics & Text | Print | Product List | Glossary On
Versions: 1 2 3 4 5 6 7 8 9 10 11 12 13 14 15 16 17 18 19 20 21 22 23 24 25 26 27 28 29 30 31 32 33 34 35 36 37 38 39 40 41 42 43 44 45 46 47 48 49 50
000
NZUS59 KLOT 251400
HRRLOT

CHICAGO AREA WEATHER ROUNDUP
NATIONAL WEATHER SERVICE CHICAGO/ROMEOVILLE IL
800 AM CST SUN JAN 25 2015

NOTE: "FAIR" INDICATES FEW OR NO CLOUDS BELOW 12,000 FEET WITH NO
SIGNIFICANT WEATHER AND/OR OBSTRUCTIONS TO VISIBILITY.

* THESE STATIONS ARE NOT UNDER NWS QUALITY CONTROL. THEY ALSO MAY NOT
  REPORT WEATHER SUCH AS PRECIPITATION OR FOG.

ILZ005-006-012>014-019>023-251500-
NORTHEAST ILLINOIS

CITY           SKY/WX    TMP DP  RH WIND       PRES   REMARKS
OHARE          LGTSLEET  32  30  92 NE17      29.74R FOG     WCI  21
MIDWAY         LGT RAIN  36  33  89 NE18G24   29.73R
AURORA         LGT SNOW  33  28  81 NE21G30   29.71R WCI  21
WAUKEGAN       LGT SNOW  28  25  88 N18G28    29.78R FOG     WCI  15
DUPAGE AIRPORT LGT SNOW  31  28  89 NE21G29   29.72R FOG     WCI  18
WHEELING       LGT SNOW  31  29  92 NE15G22   29.78R VSB 3/4 WCI  20
NORTHERLY IS     N/A     33  32  96 NE21        N/A  WCI  21
$$

WIZ051-052-058>065-066-070>072-251500-
SOUTHEAST WISCONSIN

CITY           SKY/WX    TMP DP  RH WIND       PRES   REMARKS
MILWAUKEE      FLURRIES  26  17  68 NE22G29   29.84R WCI  12
KENOSHA*       LGT SNOW  27  22  81 NE21      29.81R WCI  13
RACINE*        CLOUDY    27  19  72 NE17G28   29.84R WCI  14
WAUKESHA       LGT SNOW  25  21  86 NE17G35   29.83R WCI  11
$$

INZ001>003-010>013-019-020-251500-
NORTHWEST INDIANA

CITY           SKY/WX    TMP DP  RH WIND       PRES   REMARKS
GARY*          LGT RAIN  36  32  87 NE18      29.73R
MICHIGAN CITY* NOT AVBL
RENSSELAER*    NOT AVBL
VALPARAISO     MIX PCPN  34  32  93 NE8       29.71R FOG     WCI  27
$$

LMZ740>746-251500-
SOUTHERN LAKE MICHIGAN

STATION/POSITION TIME  SKY/WX   TEMP WIND        PRES    VSBY
                                AIR  DIR/SP/G
                 (UTC)          (F)  (DEG/KT/KT) (MB)    (MI)
HARRISON CRIB    1300            34   20/ 11/ 15   N/A
BURNHAM HARBOR   1400            33   30/ 18       N/A
CALUMET HARBOR   1300            34   20/  9/ 11   N/A
BURNS HARBOR     NOT AVBL
MICHIGAN CITY    1300            33   40/ 11/ 12   N/A
$$

ABBREVIATIONS USED IN REMARKS
   TC - TEMPERATURE IN CELSIUS
  WCI - WIND CHILL INDEX
   HX - HEAT INDEX
  VSB - VISIBILITY
$$


USA.gov is the U.S. government's official web portal to all federal, state and local government web resources and services.